Preview of NWS' New Version of Forecast
This preview is not operational and should not be used for support decisions.

Regional Weather Roundup (RWR)

Issued by National Weather Service (NWS)

                            
000
ASCA42 TJSJ 200610
RWRPR 
PUERTO RICO/U.S. VIRGIN ISLANDS HOURLY WEATHER ROUNDUP
NATIONAL WEATHER SERVICE SAN JUAN PR
200 AM AST THU JUN 20 2019

PRZ001>002-007>008-010-200700-
PUERTO RICO
  
CITY           SKY/WX    TMP DP  RH WIND       PRES   REMARKS
SAN JUAN LMM   PTCLDY    82  73  74 E7        30.07F                  
CEIBA          CLOUDY    84  75  74 E8        30.09F HX  92           
$$

VIZ001>002-200700-
U.S. VIRGIN ISLANDS
  
CITY           SKY/WX    TMP DP  RH WIND       PRES   REMARKS
CHARLOTTE AMA  CLEAR     82  73  74 E12       30.07F                  
CHRISTIANSTED  CLOUDY    81  73  78 E16G24    30.07F                  
$$

HOURLY WEATHER ROUNDUP FOR THE NEWS MEDIA
  
CITY           SKY/WX    TMP DP  RH WIND       PRES   REMARKS
ORLANDO        FAIR      75  71  87 S12       29.98F                  
NEW YORK       LGT RAIN  66  66 100 E5        29.72F VSB 1/2          
NEWARK         DRZL/FOG  67  67 100 E6        29.71F VSB 1            
CHICAGO        LGT RAIN  56  53  90 N16       29.63F                  
HARTFORD       CLOUDY    63  60  90 S6        29.77F                  
BOSTON         CLOUDY    66  62  87 SE5       29.77S                  
DALLAS         CLOUDY    84  75  74 CALM      29.74R HX  92           
PHILADELPHIA   TSTM      70  68  93 E8        29.70  FOG              
LOS ANGELES    MOCLDY    64  57  78 W8        29.98R                  
WASHINGTON DC  MOCLDY    74  71  91 S8        29.66F